Location: La Haute Bouexière
(47.9467°N, 1.7554°W)
Time: 03:10:54
(UTC+00:00)

Daily predictions for brighter satellites

Satellite Brightness Start Highest point End
(mag) Time Altitude Azimuth Time Altitude Azimuth Time Altitude Azimuth
Cosmos 2228 Rocket 4.1 00:05:20 32° ESE 00:06:08 34° E 00:10:13 10° NNE
Cosmos 2082 Rocket 3.2 00:07:01 29° SE 00:08:20 32° ESE 00:13:20 10° NE
Cosmos 1833 Rocket 2.6 00:08:10 39° SW 00:10:19 82° WNW 00:15:58 10° NNE
BREEZE-M DEB (TANK) 3.6 00:13:11 41° ESE 00:13:11 41° ESE 00:17:53 10° ESE
Cosmos 724 4.3 00:12:03 44° S 00:13:45 62° ESE 00:19:31 10° NE
Cosmos 1908 3.3 00:12:47 10° NNW 00:16:07 56° W 00:16:07 56° W
ATLAS CENTAUR R/B 4.4 00:09:31 10° NW 00:23:34 73° SW 00:31:03 20° SSE
Cosmos 1140 Rocket 3.5 00:22:27 42° SW 00:24:13 73° WNW 00:29:29 10° NNE
Cosmos 1842 4.3 00:23:50 30° W 00:24:16 31° WNW 00:27:36 10° N
PSLV R/B 3.9 00:21:08 10° N 00:25:38 59° WNW 00:26:44 44° SW
NOSS 3-3 (A) 4.4 00:21:39 18° WSW 00:25:47 56° NW 00:32:16 10° NE
USA 267 3.2 00:19:32 10° NE 00:26:07 83° SE 00:30:20 24° SW
Cosmos 1707 3.5 00:26:20 37° W 00:26:37 38° WNW 00:30:03 10° N
Cosmos 1674 4.1 00:26:29 24° W 00:26:49 24° WNW 00:29:44 10° NNW
Cosmos 1441 Rocket 3.1 00:23:38 10° NNW 00:27:04 67° W 00:27:04 67° W
Iridium 51 4.4 00:28:15 61° SSE 00:28:56 80° E 00:33:22 10° N
Cosmos 1869 Rocket 3.8 00:26:25 10° NNW 00:30:40 53° W 00:31:14 49° SW
Cosmos 1733 Rocket 3.4 00:26:33 10° N 00:30:50 58° ENE 00:31:54 44° SE
Cosmos 1400 Rocket 2.9 00:32:16 57° SE 00:32:39 61° E 00:36:36 10° NNE
Resurs 1-4 Rocket 4.5 00:31:13 10° ENE 00:32:47 11° E 00:34:21 10° ESE
GP-B 3.1 00:29:48 10° N 00:34:13 72° W 00:35:02 56° SSW
H-2A R/B 2.5 00:33:32 10° N 00:37:53 55° WNW 00:38:59 42° WSW
ALOS 2 4.3 00:38:41 20° W 00:39:07 20° W 00:42:23 10° NW
NOSS 3-4 (A) 3.8 00:35:09 10° NW 00:42:01 76° SW 00:47:10 24° SSE
NOSS 3-4 (C) 3.8 00:35:15 10° NW 00:42:07 77° SW 00:47:19 23° SSE
Cosmos 1346 Rocket 3.4 00:40:36 10° N 00:44:24 49° ENE 00:45:17 40° ESE
Cosmos 2251 Rocket 3.5 00:44:26 42° SW 00:46:13 77° WNW 00:51:31 10° NNE
Cosmos 407 Rocket 3.6 00:44:27 40° SW 00:46:21 71° WNW 00:51:37 10° NNE
Cosmos 468 Rocket 4.2 00:41:52 10° NNW 00:47:10 70° ENE 00:49:48 30° SE
Cosmos 2315 Rocket 4.2 00:41:47 10° NNW 00:47:58 61° W 00:50:26 37° SSW
Cosmos 1954 Rocket 4.3 00:48:42 39° SSE 00:50:21 55° ESE 00:55:33 10° NNE
Cosmos 1190 Rocket 4.0 00:51:10 44° S 00:52:51 77° ESE 00:58:10 10° NNE
Meteor 1-4 Rocket 4.4 00:53:08 16° E 00:53:10 16° E 00:55:07 10° NE
Cosmos 2285 Rocket 4.4 00:51:49 28° SW 00:55:03 57° WNW 01:01:20 10° NNE
Cosmos 1763 Rocket 3.5 00:51:17 10° NNW 00:56:34 70° WSW 00:58:19 42° S
Cosmos 2322 Rocket 4.1 00:53:07 10° N 00:57:55 28° NE 01:02:44 10° ESE
Cosmos 1300 2.6 00:55:50 10° NNW 00:59:22 61° W 00:59:22 61° W
SL-14 R/B 3.2 01:01:39 59° WSW 01:02:09 66° WNW 01:06:00 10° N
USA 234 3.2 00:56:30 12° SE 01:02:34 67° SW 01:09:05 10° WNW
SL-8 R/B 3.5 00:58:45 10° WNW 01:03:31 70° SSW 01:08:16 10° ESE
Cosmos 1953 3.3 01:00:08 10° N 01:03:51 41° ENE 01:05:20 28° SE
Cosmos 1697 Rocket 3.7 01:00:09 10° NW 01:04:53 28° WSW 01:05:44 27° WSW
Cosmos 1862 Rocket 3.4 01:04:13 53° SSW 01:05:12 84° W 01:09:33 10° N
Meteor 1-23 Rocket 4.4 01:03:41 35° SW 01:05:53 60° WNW 01:11:28 10° N
Aureole 3 2.7 01:09:14 71° NNW 01:09:14 71° NNW 01:11:59 10° N
Cosmos 1980 Rocket 2.5 01:06:43 10° NW 01:12:13 50° WSW 01:14:01 37° SSW
Nadezhda 1 Rocket 4.5 01:07:21 10° N 01:13:43 60° ENE 01:18:17 19° SSE
Cosmos 540 Rocket 3.4 01:09:53 10° NNW 01:15:01 66° WSW 01:16:52 39° S
Cosmos 1758 4.1 01:15:42 10° NNW 01:19:10 33° W 01:19:20 33° W
ADEOS II 4.2 01:16:34 10° NE 01:20:12 19° E 01:23:48 10° SE
MOZ.5/SAFIR/RUBIN 5/SL-8 4.0 01:18:21 27° SSE 01:20:54 67° ENE 01:25:36 10° N
COSMOS 2406 3.2 01:19:32 35° SSW 01:22:05 89° WNW 01:27:54 10° NNE
Cosmos 1356 Rocket 3.4 01:22:17 48° SW 01:23:13 65° WNW 01:27:19 10° N
Cosmos 1244 Rocket 4.5 01:20:19 33° SSW 01:23:13 76° W 01:29:26 10° N
Cosmos 2369 3.9 01:17:45 10° NW 01:23:19 54° WSW 01:25:30 34° SSW
Lacrosse 5 rocket 1.8 01:19:50 10° NW 01:23:57 61° NNE 01:27:53 10° ESE
IDEFIX/ARIANE 42P 3.5 01:20:37 10° NNE 01:25:33 39° E 01:28:29 22° SSE
Cosmos 1707 Rocket 4.4 01:28:29 32° WSW 01:29:48 40° WNW 01:34:01 10° N
Meteor 1-16 Rocket 4.2 01:25:22 10° NNW 01:31:00 70° W 01:33:51 31° S
Okean 1-7 2.9 01:30:04 43° S 01:31:26 89° W 01:35:47 10° N
Okean 3 3.8 01:34:53 38° WSW 01:35:57 49° WNW 01:39:57 10° N
ATLAS 2AS CENTAUR R/B 4.3 01:32:34 10° NW 01:38:53 36° NNE 01:44:59 10° E
Cosmos 1315 Rocket 2.8 01:39:37 40° S 01:40:52 70° E 01:44:47 10° NNE
SJ 16-02 3.3 01:39:50 13° SE 01:42:20 21° E 01:45:34 10° NE
SL-16 R/B 2.3 01:37:06 10° NNW 01:42:48 76° ENE 01:48:27 10° SSE
Helios 1A Rocket 3.4 01:43:06 35° WSW 01:43:34 36° W 01:47:11 10° NNW
Cosmos 1850 Rocket 4.4 01:46:14 26° S 01:49:03 57° ESE 01:54:12 10° NNE
Cosmos 2082 Rocket 2.8 01:48:50 22° WSW 01:52:13 48° NW 01:57:46 10° NNE
Cosmos 1709 Rocket 4.3 01:49:42 20° S 01:54:07 66° E 02:00:27 10° NNE
Cosmos 1741 Rocket 4.3 01:51:18 26° S 01:54:09 59° ESE 01:59:20 10° NNE
Cosmos 2219 Rocket 4.1 01:50:41 10° NNW 01:55:39 30° NE 02:00:37 10° ESE
SL-16 R/B 3.6 01:50:58 10° SE 01:56:51 45° ENE 02:02:47 10° N
Cosmos 1782 Rocket 3.6 01:52:32 10° N 01:56:57 80° E 01:59:39 23° SSE
Cosmos 1908 Rocket 3.8 01:53:19 10° NNW 01:57:40 54° W 01:59:24 32° SSW
CZ-2D R/B 2.6 01:53:33 10° NNE 01:58:58 57° E 02:02:42 20° S
Cosmos 2237 4.2 01:56:52 10° NNW 02:02:36 71° WSW 02:07:48 13° SSE
Cosmos 1455 2.4 02:01:01 10° NNW 02:04:20 43° W 02:05:04 37° SW
Cosmos 2360 Rocket 2.8 01:59:12 10° NNW 02:04:50 58° ENE 02:10:25 10° SE
Cosmos 968 Rocket 4.0 02:02:10 22° S 02:05:18 52° ESE 02:10:17 10° NNE
Genesis I 4.2 02:05:37 23° SSE 02:06:52 30° ESE 02:10:00 10° ENE
USA 267 4.1 02:02:40 10° NE 02:08:53 49° NNW 02:15:08 10° W
RESURS DK-1 3.9 02:05:06 10° NNW 02:08:54 36° NE 02:12:40 10° ESE
DELTA 2 R/B (1) 4.2 02:06:58 25° SW 02:09:18 35° S 02:14:17 10° ESE
MSX 3.8 02:06:13 10° NNE 02:11:59 81° ESE 02:16:00 21° SSW
Cosmos 841 Rocket 3.8 02:08:14 10° NNW 02:13:14 47° WSW 02:16:19 22° SSW
Resurs 1-4 Rocket 2.1 02:08:09 10° NNE 02:13:27 77° ESE 02:17:04 21° S
H-2A R/B 3.4 02:13:47 10° N 02:17:47 70° WNW 02:19:49 27° SSW
FENGYUN 3A 4.1 02:17:33 10° NNE 02:22:51 57° E 02:27:27 14° S
COBE Rocket 4.1 02:19:40 10° N 02:24:29 61° WNW 02:27:39 22° SSW
Cosmos 2278 4.1 02:19:14 10° NW 02:24:36 43° WSW 02:28:37 17° S
Meteor 1-4 Rocket 3.6 02:25:17 21° W 02:25:59 23° WNW 02:28:26 10° NNW
SL-24 R/B 4.5 02:28:16 10° SSE 02:33:09 78° E 02:37:58 10° N
CZ-2C R/B 2.6 02:29:15 15° S 02:33:27 60° WSW 02:38:36 10° NNW
Cosmos 2242 Rocket 3.6 02:30:51 20° SSW 02:33:52 79° W 02:38:23 10° N
Timation 1 Rocket 4.3 02:32:20 19° SSW 02:36:43 87° WNW 02:42:43 10° NNE
Cosmos 1825 4.5 02:35:05 10° SE 02:37:29 18° E 02:39:54 10° NE
Cosmos 2333 Rocket 2.2 02:32:05 10° NNW 02:37:49 89° ENE 02:43:34 10° SSE
Cosmos 2098 Rocket 3.7 02:33:32 10° N 02:38:41 85° E 02:44:46 10° S
Cosmos 1953 4.0 02:36:47 10° NW 02:39:22 17° W 02:40:27 15° WSW
Cosmos 2151 Rocket 4.5 02:36:21 10° N 02:40:44 50° ENE 02:45:03 10° SSE
Cosmos 1814 Rocket 3.9 02:36:30 10° NNW 02:41:43 75° WSW 02:46:57 10° SSE
SL-27 R/B 2.0 02:40:26 24° S 02:41:56 67° ESE 02:44:43 10° NNE
Cosmos 2322 Rocket 2.2 02:36:48 10° NNW 02:42:23 62° WSW 02:47:57 10° SSE
Cosmos 1242 Rocket 2.8 02:44:54 23° WSW 02:46:06 34° WNW 02:48:46 10° N
USA 234 4.4 02:43:44 16° SSW 02:46:23 20° WSW 02:50:59 10° WNW
NPP 4.2 02:42:49 10° N 02:47:58 47° WNW 02:52:04 16° SW
Meteor 2-5 Rocket 4.0 02:43:00 11° S 02:48:38 80° E 02:54:37 10° NNE
SL-4 R/B 3.7 02:47:25 13° S 02:50:14 24° SE 02:53:48 10° E
Okean 2 Rocket 3.6 02:49:17 10° N 02:53:39 61° ENE 02:58:00 10° SSE
Cosmos 1300 Rocket 4.4 02:50:44 10° NNW 02:54:35 32° W 02:57:22 16° SW
Cosmos 1408 2.8 02:53:36 20° SW 02:55:10 36° WNW 02:57:59 10° N
Cosmos 2074 Rocket 4.3 02:49:48 10° S 02:55:58 68° E 03:02:08 10° NNE
Cosmos 1674 Rocket 4.2 02:53:10 10° S 02:57:30 55° E 03:01:50 10° NNE
Cosmos 1570 Rocket 4.4 02:54:13 10° NNW 02:59:32 71° ENE 03:04:51 10° SSE
ADEOS II 2.2 02:55:06 10° N 03:00:19 68° WNW 03:05:05 12° SSW
Lacrosse 5 rocket 2.2 02:58:40 10° WNW 03:02:00 25° SW 03:05:13 10° S
Cosmos 1833 4.2 02:58:20 13° SSW 03:03:27 85° ESE 03:09:08 10° NNE
IDEFIX/ARIANE 42P 3.6 03:00:19 10° N 03:04:59 33° WNW 03:09:14 12° SW
ALOS 2.3 03:01:00 10° NNE 03:05:40 85° ESE 03:10:16 10° SSW
Cosmos 405 Rocket 2.6 03:09:18 10° N 03:12:54 80° ENE 03:16:33 10° SSE
Cosmos 2184 Rocket 4.1 03:07:53 10° S 03:14:07 88° ESE 03:20:27 10° N
Cosmos 1378 Rocket 3.5 03:10:22 10° S 03:14:40 84° WNW 03:18:59 10° N
CZ-2C R/B 3.7 03:13:35 10° NNE 03:18:02 37° E 03:22:19 10° SSE
Envisat 3.6 03:13:35 10° NNE 03:18:35 56° E 03:23:33 10° S
Okean 1 Rocket 3.3 03:15:53 10° N 03:20:14 73° E 03:24:32 10° SSE
SJ 16-02 1.9 03:16:36 12° SW 03:20:23 43° WNW 03:24:33 10° N
ATLAS CENTAUR R/B 3.4 03:18:07 10° SSE 03:20:24 17° ESE 03:22:42 10° ENE
Nadezhda 3 Rocket 4.1 03:16:53 10° N 03:23:17 86° E 03:29:38 10° S
CZ-2C R/B 4.0 03:18:23 10° N 03:23:49 43° WNW 03:29:10 10° SW
Cosmos 158 Rocket 4.3 03:19:00 10° NNW 03:24:25 76° ENE 03:29:46 10° SSE
Cosmos 2154 Rocket 4.1 03:19:10 10° S 03:25:21 87° E 03:31:36 10° N
Cosmos 839 Rocket 4.3 03:18:36 10° NW 03:25:33 54° WSW 03:31:33 10° SSE
SL-16 R/B 3.6 03:22:23 10° WNW 03:26:13 19° W 03:30:03 10° SW
UNK 3.9 03:21:47 10° S 03:26:20 57° W 03:30:56 10° NNW
Cosmos 2322 3.9 03:22:50 10° NNW 03:28:35 79° ENE 03:34:16 10° SSE
ATLAS 2AS CENTAUR R/B 2.6 03:23:33 10° NW 03:30:25 76° SW 03:37:00 10° SSE
EXPRESS MD2 3.5 03:31:09 10° W 03:34:17 80° N 03:39:55 10° ENE
Cosmos 2082 Rocket 4.5 03:35:09 10° WNW 03:37:48 13° NNW 03:40:27 10° N
CZ-2D R/B 3.5 03:34:10 10° N 03:38:36 26° WNW 03:43:01 10° WSW
Cosmos 2219 Rocket 2.3 03:34:24 10° NW 03:39:54 55° WSW 03:45:24 10° S
SL-16 R/B 3.2 03:34:48 10° SSW 03:40:31 37° W 03:46:18 10° NNW
BREEZE-M DEB (TANK) 1.3 03:39:19 10° WNW 03:42:30 60° SSW 03:44:32 10° ESE
Genesis I 4.3 03:40:01 10° WSW 03:43:09 30° NW 03:46:22 10° NNE
Thor Agena Rocket 4.4 03:39:20 10° NNE 03:44:26 54° E 03:49:34 10° S
